TimeEST,TemperatureF,Dew PointF,Humidity,Sea Level PressureIn,VisibilityMPH,Wind Direction,Wind SpeedMPH,Gust SpeedMPH,PrecipitationIn,Events,Conditions,WindDirDegrees,DateUTC
12:15 AM,-4.5,-12.1,70,29.97,4.0,North,10.4,-,N/A,Snow,Light Snow,350,2014-01-03 05:15:00
12:35 AM,-4.7,-12.3,70,29.96,5.0,North,10.4,-,N/A,,Haze,350,2014-01-03 05:35:00
12:55 AM,-4.9,-12.3,71,29.95,4.0,North,10.4,-,N/A,Snow,Light Snow,350,2014-01-03 05:55:00
1:15 AM,-4.9,-12.6,69,29.96,3.0,NNW,11.5,-,N/A,Snow,Light Snow,340,2014-01-03 06:15:00
1:35 AM,-5.1,-13.0,69,29.95,5.0,NNW,12.7,-,N/A,Snow,Light Snow,340,2014-01-03 06:35:00
1:55 AM,-5.1,-13.0,69,29.95,4.0,North,12.7,-,N/A,Snow,Light Snow,350,2014-01-03 06:55:00
2:15 AM,-5.3,-13.4,68,29.95,4.0,North,10.4,-,N/A,,Haze,350,2014-01-03 07:15:00
2:35 AM,-5.6,-13.5,69,29.95,4.0,NNW,12.7,-,N/A,Snow,Light Snow,340,2014-01-03 07:35:00
2:55 AM,-5.8,-13.7,69,29.95,4.0,North,11.5,-,N/A,Snow,Light Snow,350,2014-01-03 07:55:00
3:15 AM,-5.8,-13.9,68,29.93,5.0,North,12.7,-,N/A,Snow,Light Snow,350,2014-01-03 08:15:00
3:35 AM,-6.0,-14.1,68,29.93,4.0,North,12.7,-,N/A,Snow,Light Snow,350,2014-01-03 08:35:00
3:55 AM,-6.3,-14.8,67,29.93,7.0,North,13.8,-,N/A,,Overcast,350,2014-01-03 08:55:00
4:15 AM,-6.7,-15.0,67,29.94,5.0,NNW,11.5,-,N/A,Snow,Light Snow,340,2014-01-03 09:15:00
4:35 AM,-7.2,-15.9,66,29.94,7.0,North,15.0,-,N/A,,Overcast,350,2014-01-03 09:35:00
4:55 AM,-7.6,-16.2,66,29.94,10.0,North,12.7,-,N/A,,Overcast,350,2014-01-03 09:55:00
5:15 AM,-7.6,-16.4,65,29.95,10.0,North,15.0,18.4,N/A,,Overcast,350,2014-01-03 10:15:00
5:35 AM,-7.6,-16.8,64,29.95,7.0,North,12.7,-,N/A,,Overcast,350,2014-01-03 10:35:00
5:55 AM,-8.0,-17.0,65,29.96,5.0,North,11.5,-,N/A,Snow,Light Snow,350,2014-01-03 10:55:00
6:15 AM,-8.0,-16.8,65,29.97,5.0,North,12.7,-,N/A,Snow,Light Snow,350,2014-01-03 11:15:00
6:35 AM,-8.5,-17.5,65,29.98,4.0,NNW,10.4,-,N/A,Snow,Light Snow,340,2014-01-03 11:35:00
6:55 AM,-8.5,-17.9,64,29.99,4.0,NNW,11.5,-,N/A,Snow,Light Snow,340,2014-01-03 11:55:00
7:15 AM,-8.9,-18.4,63,30.00,3.0,NNW,12.7,-,N/A,Snow,Light Snow,340,2014-01-03 12:15:00
7:35 AM,-8.9,-18.4,63,30.01,4.0,North,12.7,-,N/A,Snow,Light Snow,360,2014-01-03 12:35:00
7:55 AM,-8.9,-18.2,64,30.02,2.5,North,8.1,-,N/A,Snow,Light Snow,360,2014-01-03 12:55:00
8:15 AM,-8.7,-18.4,62,30.04,3.0,North,10.4,-,N/A,Snow,Light Snow,360,2014-01-03 13:15:00
8:35 AM,-8.7,-18.4,62,30.05,5.0,North,8.1,-,N/A,,Haze,360,2014-01-03 13:35:00
8:55 AM,-8.5,-18.8,61,30.05,10.0,North,12.7,-,N/A,,Overcast,360,2014-01-03 13:55:00
9:15 AM,-8.5,-19.3,59,30.06,10.0,North,12.7,-,N/A,,Mostly Cloudy,350,2014-01-03 14:15:00
9:35 AM,-8.5,-20.2,57,30.07,10.0,North,11.5,-,N/A,,Mostly Cloudy,10,2014-01-03 14:35:00
9:55 AM,-8.1,-20.2,56,30.07,10.0,North,9.2,-,N/A,,Scattered Clouds,360,2014-01-03 14:55:00
10:15 AM,-7.6,-19.5,56,30.07,10.0,NNW,11.5,-,N/A,,Scattered Clouds,330,2014-01-03 15:15:00
10:35 AM,-7.2,-19.7,55,30.08,10.0,NNW,11.5,-,N/A,,Scattered Clouds,340,2014-01-03 15:35:00
10:55 AM,-6.9,-20.0,53,30.08,10.0,NNW,11.5,-,N/A,,Clear,340,2014-01-03 15:55:00
11:15 AM,-6.9,-19.8,53,30.07,10.0,North,12.7,-,N/A,,Clear,360,2014-01-03 16:15:00
11:35 AM,-5.8,-19.8,51,30.07,10.0,North,11.5,-,N/A,,Clear,360,2014-01-03 16:35:00
11:55 AM,-5.4,-19.8,50,30.08,10.0,North,12.7,-,N/A,,Clear,360,2014-01-03 16:55:00
12:15 PM,-5.1,-20.2,48,30.08,10.0,North,10.4,-,N/A,,Clear,360,2014-01-03 17:15:00
12:35 PM,-4.7,-19.3,50,30.09,10.0,North,8.1,-,N/A,,Clear,360,2014-01-03 17:35:00
12:55 PM,-3.1,-18.2,49,30.10,10.0,North,9.2,-,N/A,,Clear,350,2014-01-03 17:55:00
1:15 PM,-3.1,-18.2,49,30.11,10.0,NW,10.4,-,N/A,,Clear,310,2014-01-03 18:15:00
1:35 PM,-3.1,-17.5,50,30.12,10.0,NW,11.5,17.3,N/A,,Clear,310,2014-01-03 18:35:00
1:55 PM,-3.5,-17.7,51,30.13,10.0,NW,8.1,17.3,N/A,,Clear,320,2014-01-03 18:55:00
2:15 PM,-3.5,-18.4,49,30.15,10.0,NW,9.2,-,N/A,,Clear,310,2014-01-03 19:15:00
2:35 PM,-4.0,-19.3,48,30.16,10.0,WNW,10.4,16.1,N/A,,Clear,300,2014-01-03 19:35:00
2:55 PM,-4.4,-20.2,47,30.17,10.0,NW,8.1,-,N/A,,Clear,320,2014-01-03 19:55:00
3:15 PM,-4.7,-20.0,48,30.18,10.0,NNW,6.9,-,N/A,,Clear,340,2014-01-03 20:15:00
3:35 PM,-5.6,-20.6,49,30.19,10.0,North,11.5,-,N/A,,Clear,350,2014-01-03 20:35:00
3:55 PM,-6.2,-21.1,49,30.20,10.0,North,6.9,-,N/A,,Clear,10,2014-01-03 20:55:00
4:15 PM,-7.1,-21.5,50,30.21,10.0,North,5.8,-,N/A,,Clear,350,2014-01-03 21:15:00
4:35 PM,-7.2,-21.8,49,30.23,10.0,NNW,6.9,-,N/A,,Clear,340,2014-01-03 21:35:00
4:55 PM,-7.8,-21.1,52,30.25,10.0,Calm,Calm,-,N/A,,Clear,0,2014-01-03 21:55:00
5:15 PM,-8.1,-20.9,54,30.26,10.0,West,5.8,-,N/A,,Clear,280,2014-01-03 22:15:00
5:35 PM,-8.0,-20.7,54,30.27,10.0,NW,3.5,-,N/A,,Clear,310,2014-01-03 22:35:00
5:55 PM,-9.4,-21.1,57,30.28,10.0,Calm,Calm,-,N/A,,Clear,0,2014-01-03 22:55:00
6:15 PM,-12.8,-23.3,60,30.29,10.0,Calm,Calm,-,N/A,,Clear,0,2014-01-03 23:15:00
6:35 PM,-10.7,-20.0,63,30.30,10.0,Calm,Calm,-,N/A,,Clear,0,2014-01-03 23:35:00
6:55 PM,-13.0,-22.7,62,30.31,10.0,Calm,Calm,-,N/A,,Clear,0,2014-01-03 23:55:00
7:15 PM,-13.4,-21.5,67,30.31,10.0,Calm,Calm,-,N/A,,Clear,0,2014-01-04 00:15:00
7:35 PM,-12.6,-22.0,63,30.31,10.0,Calm,Calm,-,N/A,,Clear,0,2014-01-04 00:35:00
7:55 PM,-13.4,-22.0,65,30.31,10.0,SW,4.6,-,N/A,,Clear,220,2014-01-04 00:55:00
8:15 PM,-13.5,-21.3,68,30.31,10.0,SW,4.6,-,N/A,,Clear,220,2014-01-04 01:15:00
8:35 PM,-14.3,-22.4,67,30.32,7.0,SW,4.6,-,N/A,,Clear,220,2014-01-04 01:35:00
8:55 PM,-15.0,-22.7,68,30.32,10.0,SSW,4.6,-,N/A,,Clear,210,2014-01-04 01:55:00
9:15 PM,-16.2,-24.7,66,30.33,10.0,Calm,Calm,-,N/A,,Clear,0,2014-01-04 02:15:00
9:35 PM,-15.7,-23.3,69,30.33,7.0,Calm,Calm,-,N/A,,Clear,0,2014-01-04 02:35:00
9:55 PM,-14.8,-22.2,69,30.32,10.0,Calm,Calm,-,N/A,,Clear,0,2014-01-04 02:55:00
10:15 PM,-15.0,-24.0,64,30.32,10.0,Calm,Calm,-,N/A,,Clear,0,2014-01-04 03:15:00
10:35 PM,-14.8,-23.4,65,30.32,10.0,Calm,Calm,-,N/A,,Clear,0,2014-01-04 03:35:00
10:55 PM,-17.5,-26.1,65,30.32,10.0,SSW,5.8,-,N/A,,Clear,210,2014-01-04 03:55:00
11:15 PM,-14.8,-22.7,68,30.32,10.0,South,4.6,-,N/A,,Clear,190,2014-01-04 04:15:00
11:35 PM,-16.8,-25.2,65,30.32,7.0,SSW,6.9,-,N/A,,Clear,210,2014-01-04 04:35:00
11:55 PM,-17.3,-25.6,66,30.32,10.0,SSW,4.6,-,N/A,,Clear,210,2014-01-04 04:55:00